{"data":{"norad_id":66392,"intl_designator":"2025-257N","name":"STARLINK-35671","alt_names":[],"object_type":"PAYLOAD","status":"ACTIVE","operator":null,"country":"US","launch_date":"2025-11-09","launch_site_code":"AFETR","launch_vehicle":null,"mission":null,"orbit_class":"UNKNOWN","rcs_meters":null,"size_class":null,"mass_kg":null,"dimensions":null,"purposes":["comms"],"wikipedia_slug":null,"has_3d_model":false,"image_url":null,"decayed_at":null,"tle_current":{"epoch":"2026-09-20T14:24:31.953312Z","epoch_age_seconds":84764,"freshness":"FRESH","line1":"1 66392U 25257N   26263.60036983  .00025203  00000+0  75461-3 0  9998","line2":"2 66392  53.1610  28.9601 0001008  70.9339 289.1773 15.34397824 49613","mean_motion":15.34397824,"eccentricity":0.0001008,"inclination_deg":53.161,"raan_deg":28.9601,"arg_perigee_deg":70.9339,"mean_anomaly_deg":289.1773,"bstar":0.00075461,"rev_number":4961,"period_min":93.847891171149,"perigee_km":462.02015039718,"apogee_km":463.39926509346,"semimajor_km":6840.8467077453,"source":"CELESTRAK","updated_at":"2026-09-21T09:00:35.887514Z"}}}